�������l�o���
Date,Time,MP-1(��Sv/h),MP-2(��Sv/h),MP-3(��Sv/h),MP-4(��Sv/h),MP-5(��Sv/h),MP-6(��Sv/h),MP-7(��Sv/h),����,����(m/s),���J
2013/10/29,00:00,0.8,0.5,0.8,0.8,0.7,0.4,0.3,��쐼,3.7,��
2013/10/29,00:10,0.8,0.5,0.8,0.8,0.7,0.4,0.3,��쐼,4.0,��
2013/10/29,00:20,0.8,0.5,0.8,0.8,0.7,0.4,0.3,��쐼,4.6,��
2013/10/29,00:30,0.8,0.5,0.8,0.8,0.7,0.4,0.3,��쐼,4.5,��
2013/10/29,00:40,0.8,0.5,0.8,0.8,0.7,0.4,0.3,��쐼,3.7,��
2013/10/29,00:50,0.8,0.5,0.8,0.8,0.7,0.4,0.3,��쐼,4.0,��
2013/10/29,01:00,0.8,0.5,0.8,0.8,0.7,0.4,0.3,��쐼,3.6,��
2013/10/29,01:10,0.8,0.5,0.8,0.8,0.7,0.4,0.3,��쐼,3.6,��
2013/10/29,01:20,0.8,0.5,0.8,0.8,0.7,0.4,0.3,��쐼,3.9,��
2013/10/29,01:30,0.8,0.5,0.8,0.8,0.7,0.4,0.3,��쐼,3.9,��
2013/10/29,01:40,0.8,0.5,0.8,0.8,0.7,0.4,0.3,��쐼,3.5,��
2013/10/29,01:50,0.8,0.5,0.8,0.8,0.7,0.4,0.3,��쐼,3.4,��
2013/10/29,02:00,0.8,0.5,0.8,0.8,0.7,0.4,0.3,��쐼,2.2,��
2013/10/29,02:10,0.8,0.5,0.8,0.8,0.7,0.4,0.3,��쐼,3.1,��
2013/10/29,02:20,0.8,0.5,0.8,0.8,0.7,0.4,0.3,��쐼,2.9,��
2013/10/29,02:30,0.8,0.5,0.8,0.8,0.7,0.4,0.3,��쐼,2.8,��
2013/10/29,02:40,0.8,0.5,0.8,0.8,0.7,0.4,0.3,��쐼,3.5,��
2013/10/29,02:50,0.8,0.5,0.8,0.8,0.7,0.4,0.3,��쐼,3.6,��
2013/10/29,03:00,0.8,0.5,0.8,0.8,0.7,0.4,0.3,��쐼,2.3,��
2013/10/29,03:10,0.8,0.5,0.8,0.8,0.7,0.4,0.3,��쐼,3.1,��
2013/10/29,03:20,0.8,0.5,0.8,0.8,0.7,0.4,0.3,��쐼,4.1,��
2013/10/29,03:30,0.8,0.5,0.8,0.8,0.7,0.4,0.3,��쐼,3.5,��
2013/10/29,03:40,0.8,0.5,0.8,0.8,0.7,0.4,0.3,��,3.4,��
2013/10/29,03:50,0.8,0.5,0.8,0.8,0.7,0.4,0.3,��,3.1,��
2013/10/29,04:00,0.8,0.5,0.8,0.8,0.7,0.4,0.3,��,3.1,��
2013/10/29,04:10,0.8,0.5,0.8,0.8,0.7,0.4,0.3,��,3.6,��
2013/10/29,04:20,0.8,0.5,0.8,0.8,0.7,0.3,0.3,��쐼,2.5,��
2013/10/29,04:30,0.8,0.5,0.8,0.8,0.7,0.4,0.3,��,3.6,��
2013/10/29,04:40,0.8,0.5,0.8,0.8,0.7,0.4,0.3,��,3.3,��
2013/10/29,04:50,0.8,0.5,0.8,0.8,0.7,0.4,0.3,��,4.2,��
2013/10/29,05:00,0.8,0.5,0.8,0.8,0.7,0.4,0.3,��쐼,4.2,��
2013/10/29,05:10,0.8,0.5,0.8,0.8,0.7,0.4,0.3,��쐼,3.9,��
2013/10/29,05:20,0.8,0.5,0.8,0.8,0.7,0.4,0.3,��쐼,3.2,��
2013/10/29,05:30,0.8,0.5,0.8,0.8,0.7,0.4,0.3,�쐼,2.8,��
2013/10/29,05:40,0.8,0.5,0.8,0.8,0.7,0.4,0.3,�쐼,1.9,��
2013/10/29,05:50,0.8,0.5,0.8,0.8,0.7,0.4,0.3,�쐼,2.0,��
2013/10/29,06:00,0.8,0.5,0.8,0.8,0.7,0.4,0.3,��쐼,1.9,��
2013/10/29,06:10,0.8,0.5,0.8,0.8,0.7,0.3,0.3,���쐼,1.1,��
2013/10/29,06:20,0.8,0.5,0.8,0.8,0.7,0.4,0.3,�쐼,1.2,��
2013/10/29,06:30,0.8,0.5,0.8,0.8,0.7,0.4,0.3,�쐼,1.9,��
2013/10/29,06:40,0.8,0.5,0.8,0.8,0.7,0.3,0.3,�쐼,2.8,��
2013/10/29,06:50,0.8,0.5,0.8,0.8,0.7,0.4,0.3,��쐼,2.4,��
2013/10/29,07:00,0.8,0.5,0.8,0.8,0.7,0.4,0.3,��쐼,2.2,��
2013/10/29,07:10,0.8,0.5,0.8,0.8,0.7,0.4,0.3,��쐼,1.5,��
2013/10/29,07:20,0.8,0.5,0.8,0.8,0.7,0.4,0.3,��쐼,1.9,��
2013/10/29,07:30,0.8,0.5,0.8,0.8,0.7,0.4,0.3,��,1.6,��
2013/10/29,07:40,0.8,0.5,0.8,0.8,0.7,0.3,0.3,��,2.3,��
2013/10/29,07:50,0.8,0.5,0.8,0.8,0.7,0.4,0.3,��쓌,0.8,��
2013/10/29,08:00,0.8,0.5,0.8,0.8,0.7,0.4,0.3,-,CALM,��
2013/10/29,08:10,0.8,0.5,0.8,0.8,0.7,0.4,0.3,��쓌,1.1,��
2013/10/29,08:20,0.8,0.5,0.8,0.8,0.7,0.4,0.3,�쓌,1.0,��
2013/10/29,08:30,0.8,0.5,0.8,0.8,0.7,0.4,0.3,��쓌,1.5,��
2013/10/29,08:40,0.8,0.5,0.8,0.8,0.7,0.4,0.3,��,1.1,��
2013/10/29,08:50,0.8,0.5,0.8,0.8,0.7,0.4,0.3,��쓌,1.9,��
2013/10/29,09:00,0.8,0.5,0.8,0.8,0.7,0.3,0.3,��쓌,2.8,��
2013/10/29,09:10,0.8,0.5,0.8,0.8,0.7,0.4,0.3,��쓌,2.0,��
2013/10/29,09:20,0.8,0.5,0.8,0.8,0.7,0.3,0.3,��쓌,3.1,��
2013/10/29,09:30,0.8,0.5,0.8,0.8,0.7,0.4,0.3,��쓌,4.7,��
2013/10/29,09:40,0.8,0.5,0.8,0.8,0.7,0.4,0.3,��쓌,3.8,��
2013/10/29,09:50,0.8,0.5,0.8,0.8,0.7,0.3,0.3,��쓌,3.9,��
2013/10/29,10:00,0.8,0.5,0.8,0.8,0.7,0.4,0.3,�쓌,3.4,��
2013/10/29,10:10,0.8,0.5,0.8,0.8,0.7,0.4,0.3,��쓌,3.8,��
2013/10/29,10:20,0.8,0.5,0.8,0.8,0.7,0.4,0.3,��쓌,3.9,��
2013/10/29,10:30,0.8,0.5,0.8,0.8,0.7,0.4,0.3,��쓌,4.1,��
2013/10/29,10:40,0.8,0.6,0.8,0.8,0.7,0.4,0.3,��쓌,3.3,��
2013/10/29,10:50,0.8,0.6,0.8,0.8,0.7,0.4,0.3,��쓌,4.2,��
2013/10/29,11:00,0.8,0.6,0.8,0.8,0.7,0.3,0.3,��쓌,4.6,��
2013/10/29,11:10,0.8,0.6,0.8,0.8,0.7,0.4,0.3,�쓌,4.0,��
2013/10/29,11:20,0.8,0.6,0.8,0.8,0.7,0.4,0.3,��쓌,5.0,��
2013/10/29,11:30,0.8,0.6,0.8,0.8,0.7,0.4,0.3,��쓌,6.0,��
2013/10/29,11:40,0.8,0.6,0.8,0.8,0.7,0.4,0.3,��쓌,6.0,��
2013/10/29,11:50,0.8,0.6,0.8,0.8,0.7,0.4,0.3,��쓌,6.3,��
2013/10/29,12:00,0.8,0.6,0.8,0.8,0.7,0.4,0.3,��쓌,6.4,��
2013/10/29,12:10,0.8,0.6,0.8,0.8,0.7,0.4,0.3,��쓌,7.0,��
2013/10/29,12:20,0.8,0.6,0.8,0.8,0.7,0.4,0.3,��쓌,7.0,��
2013/10/29,12:30,0.8,0.6,0.8,0.8,0.7,0.4,0.3,��쓌,8.1,��
2013/10/29,12:40,0.8,0.6,0.8,0.8,0.7,0.4,0.3,��쓌,7.1,��
2013/10/29,12:50,0.8,0.6,0.8,0.8,0.7,0.4,0.3,��쓌,7.0,��
2013/10/29,13:00,0.8,0.6,0.8,0.8,0.7,0.4,0.3,��쓌,7.2,��
2013/10/29,13:10,0.8,0.6,0.8,0.8,0.7,0.4,0.3,��쓌,6.8,��
2013/10/29,13:20,0.8,0.6,0.8,0.8,0.7,0.4,0.3,��쓌,6.7,��
2013/10/29,13:30,0.8,0.6,0.8,0.8,0.7,0.4,0.3,��,5.5,��
2013/10/29,13:40,0.8,0.6,0.8,0.8,0.7,0.4,0.3,��,6.0,��
2013/10/29,13:50,0.8,0.5,0.8,0.8,0.7,0.4,0.3,��,4.8,��
2013/10/29,14:00,0.8,0.6,0.8,0.8,0.7,0.4,0.3,��,5.8,��
2013/10/29,14:10,0.8,0.6,0.8,0.8,0.7,0.4,0.3,��,5.5,��
2013/10/29,14:20,0.8,0.6,0.8,0.8,0.7,0.4,0.3,��,4.3,��
2013/10/29,14:30,0.8,0.6,0.8,0.8,0.7,0.4,0.3,��,6.0,��
2013/10/29,14:40,0.8,0.6,0.8,0.8,0.7,0.4,0.3,��,6.4,��
2013/10/29,14:50,0.8,0.6,0.8,0.8,0.7,0.4,0.3,��,5.2,��
2013/10/29,15:00,0.8,0.6,0.8,0.8,0.7,0.4,0.3,��,5.9,��
2013/10/29,15:10,0.8,0.6,0.8,0.8,0.7,0.4,0.3,��,4.8,��
2013/10/29,15:20,0.8,0.5,0.8,0.8,0.7,0.4,0.3,��,5.7,��
2013/10/29,15:30,0.8,0.5,0.8,0.8,0.7,0.4,0.3,��,5.2,��
2013/10/29,15:40,0.8,0.5,0.8,0.8,0.7,0.4,0.3,��,5.5,��
2013/10/29,15:50,0.8,0.6,0.8,0.8,0.7,0.4,0.3,��,4.5,��
2013/10/29,16:00,0.8,0.5,0.8,0.8,0.7,0.4,0.3,��,6.2,��
2013/10/29,16:10,0.8,0.5,0.8,0.8,0.7,0.4,0.3,��,6.6,��
2013/10/29,16:20,0.8,0.5,0.8,0.8,0.7,0.4,0.3,��쐼,6.9,��
2013/10/29,16:30,0.8,0.5,0.8,0.8,0.7,0.4,0.3,��,7.2,��
2013/10/29,16:40,0.8,0.5,0.8,0.8,0.7,0.4,0.3,��쐼,7.0,��
2013/10/29,16:50,0.8,0.5,0.8,0.8,0.7,0.4,0.3,��쐼,7.5,��
2013/10/29,17:00,0.8,0.5,0.8,0.8,0.7,0.4,0.3,��쐼,7.3,��
2013/10/29,17:10,0.8,0.5,0.8,0.8,0.7,0.4,0.3,��쐼,6.5,��
2013/10/29,17:20,0.8,0.5,0.8,0.8,0.7,0.4,0.3,��쐼,7.1,��
2013/10/29,17:30,0.8,0.5,0.8,0.8,0.7,0.4,0.3,��쐼,6.3,��
2013/10/29,17:40,0.8,0.5,0.8,0.8,0.7,0.4,0.3,��쐼,6.3,��
2013/10/29,17:50,0.8,0.5,0.8,0.8,0.7,0.4,0.3,��쐼,6.1,��
2013/10/29,18:00,0.8,0.5,0.8,0.8,0.7,0.4,0.3,��쐼,6.6,��
2013/10/29,18:10,0.8,0.5,0.8,0.8,0.7,0.4,0.3,��쐼,6.0,��
2013/10/29,18:20,0.8,0.5,0.8,0.8,0.7,0.4,0.3,��,4.0,��
2013/10/29,18:30,0.8,0.5,0.8,0.8,0.7,0.4,0.3,��쐼,6.2,��
2013/10/29,18:40,0.8,0.5,0.8,0.8,0.7,0.4,0.3,��,7.8,��
2013/10/29,18:50,0.8,0.5,0.8,0.8,0.7,0.4,0.3,��,7.1,�L
2013/10/29,19:00,0.8,0.5,0.8,0.8,0.7,0.4,0.3,��,7.7,��
2013/10/29,19:10,0.8,0.5,0.8,0.8,0.7,0.4,0.3,��,6.8,��
2013/10/29,19:20,0.8,0.5,0.8,0.8,0.7,0.4,0.3,��,6.8,��
2013/10/29,19:30,0.8,0.5,0.8,0.8,0.7,0.4,0.3,��쐼,7.3,��
2013/10/29,19:40,0.8,0.5,0.8,0.8,0.7,0.4,0.3,��쐼,7.2,��
2013/10/29,19:50,0.8,0.5,0.8,0.8,0.7,0.4,0.3,��,7.3,��
2013/10/29,20:00,0.8,0.5,0.8,0.8,0.7,0.4,0.3,��쐼,7.1,��
2013/10/29,20:10,0.8,0.5,0.8,0.8,0.7,0.4,0.3,��쐼,7.8,��
2013/10/29,20:20,0.8,0.5,0.8,0.8,0.7,0.4,0.3,��쐼,7.0,��
2013/10/29,20:30,0.8,0.5,0.8,0.8,0.7,0.4,0.3,��쐼,8.3,��
2013/10/29,20:40,0.8,0.5,0.8,0.8,0.7,0.4,0.3,��쐼,8.4,��
2013/10/29,20:50,0.8,0.5,0.8,0.8,0.7,0.4,0.3,��쐼,7.3,��
2013/10/29,21:00,0.8,0.5,0.8,0.8,0.7,0.4,0.3,��쐼,6.0,��
2013/10/29,21:10,0.8,0.5,0.8,0.8,0.7,0.4,0.3,��쐼,5.9,��
2013/10/29,21:20,0.8,0.5,0.8,0.8,0.7,0.4,0.3,��쐼,5.5,��
2013/10/29,21:30,0.8,0.5,0.8,0.8,0.7,0.4,0.3,�쐼,3.8,��
2013/10/29,21:40,0.8,0.5,0.8,0.8,0.7,0.4,0.3,�쐼,3.1,��
2013/10/29,21:50,0.8,0.5,0.8,0.8,0.7,0.4,0.3,�쐼,3.7,��
2013/10/29,22:00,0.8,0.5,0.8,0.8,0.7,0.4,0.3,�쐼,3.9,��
2013/10/29,22:10,0.8,0.5,0.8,0.8,0.7,0.4,0.3,�쐼,4.0,��
2013/10/29,22:20,0.8,0.5,0.8,0.8,0.7,0.4,0.3,�쐼,3.9,��
2013/10/29,22:30,0.8,0.5,0.8,0.8,0.7,0.4,0.3,�쐼,3.2,��
2013/10/29,22:40,0.8,0.5,0.8,0.8,0.7,0.4,0.3,��쐼,1.6,��
2013/10/29,22:50,0.8,0.5,0.8,0.8,0.7,0.4,0.3,��쓌,2.5,��
2013/10/29,23:00,0.8,0.5,0.8,0.8,0.7,0.4,0.3,��,1.9,��
2013/10/29,23:10,0.8,0.5,0.8,0.8,0.7,0.4,0.3,��,1.3,��
2013/10/29,23:20,0.8,0.5,0.8,0.8,0.7,0.4,0.3,���쐼,0.8,��
2013/10/29,23:30,0.8,0.5,0.8,0.8,0.7,0.4,0.3,��쐼,0.7,��
2013/10/29,23:40,0.8,0.5,0.8,0.8,0.7,0.4,0.3,��쓌,2.9,��
2013/10/29,23:50,0.8,0.5,0.8,0.8,0.7,0.4,0.3,��쓌,2.5,��
